Location: Arboucave
(43.6130°N, 0.4343°W)
Time: 12:11:37
(UTC+00:00)

Cosmos 2082 Rocket - Pass Details

Date: 17 November 2025
Orbit: 834 x 851 km, 71.0° (Epoch: 11 December)

Event Time Altitude Azimuth Distance (km) Brightness Sun altitude
Rises 17:46:43 0° 338° (NNW) 3,390 5.4 -13.1°
Reaches altitude 10° 17:49:15 10° 344° (NNW) 2,452 4.6 -13.5°
Maximum altitude 17:54:43 50° 60° (ENE) 1,060 2.3 -14.5°
Drops below altitude 10° 18:00:08 10° 135° (SE) 2,441 4.3 -15.4°
Sets 18:02:38 0° 141° (SE) 3,373 5.1 -15.9°
